Flag for Germany Weather past 2 weeks in Garbsen, Lower Saxony, Germany

61 °F

Rain showers. Fog.

Feels Like: 61 °F
Forecast: 53 / 59 °F
Wind: 5 mph from North

Location: Hannover

Current Time: Oct 7, 2015 at 7:29:19 PM

Latest Report: Oct 7, 2015 at 6:50 PM

Visibility: 1 mi

Pressure: 29.89 "Hg

Humidity: 100%

Dew point: 61 °F

Location of GarbsenLocation

Historic Weather in Garbsen — Graph


Garbsen temperature yesterday

Maximum temperature yesterday: 63 °F (at 3:20 PM)
Minimum temperature yesterday: 54 °F (at 12:50 AM)
Average temperature yesterday: 57 °F

Past Weeks' High & Low Weather Summary

High66 °F (Oct 3, 4:50 PM)100% (Sep 22, 7:50 PM)30.69 "Hg (Sep 22, 7:50 PM)
Low36 °F (Oct 2, 3:50 AM)45% (Oct 2, 4:20 PM)29.53 "Hg (Sep 22, 6:50 PM)
Average53 °F87%30.18 "Hg
* Reported Sep 22 6:20 PM — Oct 7 6:20 PM, Garbsen, Weather by CustomWeather, © 2015

Note: Actual official high and low records may vary slightly from our data, if they occured in-between our weather recording intervals... More about our weather records


Garbsen weather history for previous 24 hours

Time TempWeatherWind HumidityBarometerVisibility
6:20 PM
Wed, Oct 7
61 °FDrizzle. Fog.6 mph100%29.89 "Hg2 mi
5:50 PM63 °FFog.7 mph94%29.89 "Hg3 mi
5:20 PM63 °FFog.7 mph94%29.86 "Hg3 mi
4:50 PM63 °FBroken clouds.7 mph94%29.86 "Hg5 mi
4:20 PM63 °FBroken clouds.3 mph94%29.86 "HgN/A
3:50 PM63 °FSprinkles. Broken clouds.3 mph94%29.86 "HgN/A
3:20 PM63 °FSprinkles. Broken clouds.5 mph94%29.86 "HgN/A
2:50 PM63 °FScattered showers. Broken clouds.6 mph94%29.86 "HgN/A
2:20 PM63 °FBroken clouds.6 mph94%29.86 "HgN/A
1:50 PM63 °FBroken clouds.3 mph94%29.86 "HgN/A
1:20 PM63 °FBroken clouds.3 mph94%29.83 "HgN/A
12:50 PM61 °FFog.2 mph94%29.83 "Hg4 mi
12:20 PM61 °FDrizzle. Fog.5 mph100%29.83 "Hg2 mi
11:50 AM61 °FFog.3 mph100%29.83 "Hg2 mi
11:20 AM61 °FFog.5 mph100%29.83 "Hg1 mi
10:50 AM61 °FFog.5 mph94%29.83 "Hg1 mi
10:20 AM59 °FFog.6 mph100%29.80 "Hg1 mi
9:50 AM59 °FCool.5 mph100%29.80 "Hg1 mi
9:20 AM59 °FCool.5 mph100%29.80 "Hg1 mi
8:50 AM57 °FFog.3 mph100%29.77 "Hg1 mi
8:20 AM57 °FFog.5 mph100%29.77 "Hg1 mi
7:50 AM57 °FFog.3 mph100%29.77 "Hg1 mi
7:20 AM57 °FFog.3 mph100%29.77 "Hg1 mi
6:50 AM57 °FFog.5 mph100%29.74 "Hg1 mi
6:20 AM57 °FFog.5 mph100%29.74 "Hg2 mi
5:50 AM57 °FLight rain. Fog.5 mph100%29.74 "Hg2 mi
5:20 AM57 °FFog.5 mph100%29.74 "Hg2 mi
4:50 AM57 °FFog.7 mph100%29.74 "Hg2 mi
4:20 AM59 °FFog.6 mph100%29.74 "Hg2 mi
3:50 AM59 °FLight rain. Fog.6 mph100%29.74 "Hg2 mi
3:20 AM57 °FFog.7 mph100%29.74 "Hg2 mi
2:50 AM59 °FFog.8 mph94%29.74 "Hg2 mi
2:20 AM59 °FFog.7 mph100%29.71 "Hg2 mi
1:50 AM59 °FFog.6 mph100%29.71 "Hg2 mi
1:20 AM59 °FFog.7 mph100%29.71 "Hg2 mi
12:50 AM59 °FFog.6 mph100%29.71 "Hg2 mi
11:50 PM
Tue, Oct 6
59 °FRain. Fog.9 mph100%29.71 "Hg1 mi
11:20 PM59 °FRain. Fog.8 mph100%29.71 "Hg1 mi
10:50 PM59 °FLight rain. Passing clouds.9 mph100%29.71 "Hg4 mi
10:20 PM59 °FPassing clouds.8 mph100%29.71 "Hg4 mi
9:50 PM59 °FLight rain. Partly cloudy.6 mph100%29.71 "Hg4 mi
9:20 PM61 °FLight rain. Partly cloudy.8 mph94%29.71 "HgN/A
8:50 PM59 °FClear.9 mph94%29.71 "Hg10 mi
8:20 PM59 °FClear.9 mph94%29.71 "Hg10 mi
7:50 PM59 °FPartly cloudy.7 mph94%29.71 "HgN/A
7:20 PM59 °FBroken clouds.7 mph94%29.68 "HgN/A
Weather by CustomWeather, © 2015

See weather overviewHow to use our weather pages